Flag for U.S.A. Weather past 2 weeks in Sarasota, Florida, U.S.A.

Now
85 °F

Clear.


Feels Like: 92 °F
Forecast: 82 / 90 °F
Wind: 8 mph from Northwest

Location: Sarasota-Bradenton International Airport

Current Time: Jul 28, 2014 at 12:32:38 AM

Latest Report: Jul 27, 2014 at 11:53 PM


Visibility: 10 mi

Pressure: 30.06 "Hg

Humidity: 68%

Dew point: 73 °F

Location of SarasotaLocation

Historic Weather in Sarasota — Graph

°F

Sarasota temperature yesterday

Maximum temperature yesterday: 92 °F (at 12:53 PM)
Minimum temperature yesterday: 78 °F (at 5:53 AM)
Average temperature yesterday: 86 °F

Past Weeks' High & Low Weather Summary

 TemperatureHumidityPressure
High92 °F (Jul 14, 2:53 PM)94% (Jul 18, 5:53 AM)30.11 "Hg (Jul 18, 5:53 AM)
Low74 °F (Jul 18, 5:53 AM)50% (Jul 14, 12:53 PM)29.91 "Hg (Jul 16, 4:53 AM)
Average83 °F73%30.03 "Hg
* Reported Jul 12 10:53 PM — Jul 27 10:53 PM, Sarasota, Weather by CustomWeather, © 2014

Note: Actual official high and low records may vary slightly from our data, if they occured in-between our weather recording intervals... More about our weather records

Advertising

Sarasota weather history for previous 24 hours

 ConditionsComfort  
Time TempWeatherWind HumidityBarometerVisibility
10:53 PM
Jul 27
86 °FPassing clouds.9 mph67%30.06 "Hg10 mi
9:53 PM86 °FClear.8 mph70%30.06 "Hg10 mi
8:53 PM86 °FScattered clouds.9 mph67%30.06 "Hg10 mi
7:53 PM87 °FSunny.7 mph65%30.06 "Hg10 mi
6:53 PM88 °FSunny.8 mph57%30.05 "Hg10 mi
5:53 PM89 °FSunny.10 mph55%30.05 "Hg10 mi
4:53 PM90 °FSunny.10 mph57%30.05 "Hg10 mi
3:53 PM91 °FSunny.12 mph56%30.06 "Hg10 mi
2:53 PM92 °FSunny.12 mph52%30.08 "Hg10 mi
1:53 PM91 °FSunny.12 mph56%30.09 "Hg10 mi
12:53 PM92 °FSunny.9 mph58%30.09 "Hg10 mi
11:53 AM91 °FSunny.9 mph56%30.11 "Hg10 mi
10:53 AM89 °FSunny.8 mph59%30.10 "Hg10 mi
9:53 AM89 °FScattered clouds.7 mph61%30.09 "Hg10 mi
8:53 AM87 °FSunny.No wind65%30.08 "Hg10 mi
7:53 AM81 °FSunny.No wind85%30.07 "Hg10 mi
6:53 AM78 °FClear.No wind90%30.07 "Hg10 mi
5:53 AM78 °FPassing clouds.3 mph90%30.05 "Hg10 mi
4:53 AM80 °FPassing clouds.No wind87%30.05 "Hg10 mi
3:53 AM80 °FClear.N/A87%30.04 "Hg10 mi
2:53 AM80 °FPartly cloudy.6 mph87%30.05 "Hg10 mi
1:53 AM85 °FClear.3 mph70%30.06 "Hg10 mi
12:53 AM85 °FClear.6 mph70%30.06 "Hg10 mi
Weather by CustomWeather, © 2014

See weather overviewHow to use our weather pages